GEFSCGP_850_meantemp_018.txt.gz
Temperature
24 25 24 24 24 24 24 24 24 24 24 24 24 23 22 21 20 20 20 20 20 20 20 20 20 21 21 22 22 22 21 20 20 19 19 19 19 18 18 18 18 17 17 17
25 24 23 23 23 24 24 23 23 24 23 23 24 23 22 20 20 19 19 19 19 18 19 19 19 20 21 21 22 22 21 20 20 20 20 20 19 19 18 18 18 17 17 17
24 23 23 23 23 23 23 22 22 22 23 23 23 23 22 21 20 19 18 18 17 17 17 18 18 19 20 20 21 22 21 20 20 20 20 20 19 19 18 18 18 17 17 17
23 22 22 23 21 22 22 21 21 21 22 23 22 22 23 21 20 20 18 17 17 16 16 16 16 17 18 19 21 21 21 20 19 19 20 20 19 18 17 17 17 17 17 17
21 21 21 20 20 20 20 20 20 21 21 21 22 21 23 20 19 19 18 17 16 15 15 15 16 16 17 18 19 20 20 19 18 18 19 18 18 17 17 17 17 17 17 17
21 20 19 19 20 20 20 20 21 20 21 20 22 22 20 18 17 17 17 17 16 15 15 15 15 15 16 16 17 18 18 18 17 17 17 17 17 16 16 16 16 17 17 17
21 19 19 19 19 19 19 19 19 19 19 20 21 20 16 16 16 16 16 16 15 15 15 15 15 15 15 15 16 16 16 16 16 16 16 16 15 15 15 15 15 16 16 16
19 19 18 18 17 17 18 18 17 17 18 18 19 17 15 16 16 16 15 15 15 15 15 14 14 14 14 14 15 15 15 15 15 14 14 15 14 14 14 14 15 15 16 16
19 18 18 17 17 17 17 17 16 16 17 17 18 16 15 16 16 15 15 15 14 14 14 14 14 13 14 14 14 14 14 14 14 14 13 13 13 13 14 14 15 15 16 16
18 18 17 17 17 16 15 15 15 15 15 16 17 15 13 14 14 14 14 13 14 14 14 14 13 13 13 13 13 13 13 13 13 13 13 13 14 14 14 15 15 15 16 16
18 18 17 17 15 13 13 13 13 14 14 14 14 13 12 12 12 12 12 12 12 13 13 13 13 13 13 13 13 13 14 14 14 14 14 14 14 14 15 15 15 15 16 16
17 18 17 16 15 14 13 13 13 12 13 13 12 12 12 11 11 11 11 11 11 12 13 13 13 13 13 13 13 13 14 14 14 14 14 14 14 15 15 15 15 15 16 16
17 17 18 17 16 15 13 13 13 13 12 12 11 11 12 11 10 10 11 11 11 12 12 13 13 13 13 13 13 14 14 14 14 14 14 14 14 15 15 15 15 16 16 16
16 17 17 15 14 13 13 13 13 13 12 11 11 11 11 10 10 10 10 10 11 11 12 12 12 12 13 13 13 13 14 14 14 14 14 14 14 15 15 15 16 16 16 16
18 17 16 15 14 14 14 13 13 12 11 11 11 10 10 9 9 10 10 11 11 11 11 11 11 11 12 12 12 13 13 13 14 14 14 14 15 15 15 15 16 16 16 16
17 17 16 15 15 15 15 14 13 12 11 11 12 11 10 10 11 11 11 11 12 12 12 12 12 11 11 12 12 12 12 13 13 14 14 14 14 15 15 15 15 15 15 15
17 17 16 16 15 15 15 14 13 12 12 11 11 11 11 12 12 12 11 12 12 12 12 12 12 12 12 12 11 11 12 12 12 13 13 13 13 13 13 13 14 14 14 14
16 16 16 16 16 16 15 14 13 13 12 12 12 13 13 13 12 13 12 12 13 13 13 13 13 12 12 12 12 12 12 12 12 12 12 12 12 12 12 12 13 13 12 13
16 16 16 16 16 16 14 14 13 14 14 13 13 13 13 14 15 15 13 13 13 13 13 13 13 13 13 12 12 13 12 12 11 11 11 11 11 11 11 12 12 12 12 12
15 16 16 16 17 16 15 14 13 14 15 14 13 14 14 15 17 16 13 13 13 13 13 13 13 13 13 13 13 13 13 12 11 11 11 11 11 11 11 11 11 11 11 11
16 16 16 17 17 17 15 13 13 14 15 14 13 13 13 14 14 13 13 13 13 14 14 14 14 14 13 13 13 13 13 12 12 11 11 11 11 11 11 11 11 11 11 11
17 17 16 16 17 16 13 13 14 15 14 13 13 13 13 13 13 13 13 13 13 14 14 14 14 14 14 14 13 13 13 12 12 11 11 11 11 11 11 11 11 11 11 11
16 17 17 17 17 15 13 13 13 12 13 13 13 12 12 12 13 13 13 13 13 14 14 15 15 15 14 14 14 14 13 13 12 12 11 11 11 11 11 11 11 11 10 10
16 14 15 15 15 14 13 12 12 12 12 12 12 12 12 12 12 12 13 13 13 13 14 14 15 15 15 15 15 14 14 14 13 12 12 11 11 11 11 11 10 10 10 10
17 15 15 16 16 14 13 13 13 12 12 12 12 12 12 12 12 12 12 12 13 13 14 14 15 15 15 15 15 15 15 14 13 12 12 11 11 11 10 10 10 10 10 10
16 15 16 17 16 16 15 13 12 12 12 12 12 12 12 12 12 12 12 12 12 13 14 14 15 15 15 15 15 15 15 15 14 13 12 12 11 11 10 10 10 10 10 10

GEFSCGP_850_meantemp_024.txt.gz
Temperature
28 28 26 26 27 26 26 26 26 26 26 25 25 25 25 25 24 24 24 24 23 22 21 20 21 21 22 22 23 23 24 23 23 22 21 21 20 20 19 19 19 19 19 19
28 26 26 27 27 26 26 25 25 26 26 25 25 25 25 25 24 23 23 22 21 20 20 19 19 19 19 20 21 22 22 23 22 22 22 21 20 20 19 19 19 18 18 18
26 25 26 26 26 24 24 24 23 23 24 25 24 24 25 25 23 22 22 21 20 19 19 18 18 18 18 19 19 20 21 22 22 22 21 21 20 19 19 18 18 18 18 18
25 25 25 24 24 23 22 23 23 22 22 22 23 22 23 22 21 20 20 20 19 19 18 18 17 17 17 17 17 18 19 20 21 21 21 20 20 19 19 18 18 18 18 17
23 23 23 22 22 22 22 23 22 22 22 21 22 22 21 19 17 17 18 19 19 18 18 17 17 16 16 16 16 17 17 18 19 20 20 20 19 19 18 18 18 17 17 17
23 23 22 21 22 23 23 22 23 23 22 20 21 21 18 16 16 16 17 17 18 18 17 17 16 15 15 15 16 16 16 17 17 18 19 19 18 18 18 17 17 16 16 16
23 22 22 21 21 21 21 20 20 20 20 19 19 18 14 15 16 16 16 17 17 16 16 15 15 14 14 14 15 15 15 16 16 16 17 17 17 17 16 16 16 15 15 16
24 21 20 20 19 19 20 20 18 17 18 18 19 16 13 14 14 14 15 15 15 15 15 14 14 13 13 13 14 14 14 14 15 15 15 15 15 15 15 15 15 14 14 15
23 21 21 21 20 19 18 18 19 18 18 18 17 15 15 14 14 14 14 14 14 14 14 13 13 13 13 13 13 13 13 14 14 14 14 14 14 14 14 14 14 14 14 14
22 22 21 21 20 19 19 18 18 17 16 16 16 14 12 12 12 13 13 13 12 12 13 13 13 13 13 13 13 13 13 13 13 13 13 13 13 13 13 13 13 13 13 14
22 22 21 20 18 17 17 17 17 17 16 14 13 12 11 11 11 11 11 11 11 12 12 12 12 13 13 13 13 13 13 13 13 13 13 13 13 13 13 13 13 13 14 14
22 21 21 19 19 19 18 17 16 15 14 14 12 11 11 10 10 10 11 11 11 11 12 12 12 12 13 13 13 13 13 13 13 13 13 13 13 14 14 14 14 14 15 15
19 21 20 18 18 18 17 17 17 16 14 13 12 11 11 10 10 10 10 11 11 11 12 12 12 13 12 12 13 13 13 13 13 13 14 14 14 14 14 14 15 15 15 15
18 21 19 18 17 17 17 17 16 15 13 12 11 11 11 11 11 11 11 11 12 13 13 13 13 13 13 12 12 13 13 13 13 13 14 14 14 14 14 14 15 15 15 15
21 21 20 19 19 19 18 17 16 15 14 12 12 12 12 12 12 12 12 13 13 14 14 14 14 14 13 13 13 12 12 12 13 13 13 13 13 14 14 14 14 14 15 15
21 21 20 19 19 19 18 18 17 16 15 14 14 13 14 14 13 13 14 14 14 14 15 15 14 14 14 14 13 13 12 12 12 12 12 12 13 13 13 13 13 13 14 14
21 21 21 21 20 19 18 18 17 16 16 15 15 14 15 15 15 15 15 15 15 15 15 15 15 15 15 14 14 13 13 12 12 12 12 12 12 12 12 12 12 12 13 13
21 21 21 21 21 19 18 18 18 17 17 17 16 16 16 16 16 15 15 15 15 15 15 15 15 15 15 15 15 14 13 13 12 12 12 12 12 12 12 12 12 12 12 12
20 20 20 21 20 19 18 18 18 18 17 18 17 17 17 17 17 16 16 15 15 15 15 15 15 15 15 15 15 14 14 13 12 12 12 12 11 11 11 11 11 11 11 11
20 20 20 20 20 19 19 19 18 18 17 18 18 18 17 17 16 16 16 16 15 15 15 15 15 15 15 15 15 15 14 13 12 12 12 11 11 11 11 11 11 11 11 11
21 20 20 20 20 20 19 18 18 17 17 18 17 17 17 17 16 16 16 15 15 15 15 15 15 15 15 15 15 15 14 13 13 12 12 12 12 12 11 11 11 11 11 11
22 21 21 21 20 18 18 18 18 18 18 18 17 17 16 16 16 16 16 15 15 15 15 15 15 15 15 15 15 15 14 14 13 13 12 12 12 12 11 11 11 11 10 10
21 21 20 20 18 18 17 18 18 17 18 17 17 16 16 16 16 16 15 15 15 15 15 15 15 15 15 15 15 15 15 14 14 13 13 13 12 12 11 11 11 10 10 10
23 21 20 20 19 18 17 17 16 17 17 16 16 16 16 16 15 15 15 15 15 15 15 15 15 15 15 15 15 15 15 15 14 14 13 13 12 12 11 11 11 11 11 11
22 20 20 20 20 18 17 17 16 16 16 16 15 15 15 15 15 15 15 14 14 15 15 15 15 15 15 15 15 15 15 15 15 14 14 13 13 12 11 11 11 11 10 10
23 21 20 21 20 19 18 17 16 16 16 16 15 15 15 15 15 15 15 14 14 14 15 15 15 15 15 15 15 15 15 15 15 14 14 13 12 12 11 11 11 10 10 10

GEFSCGP_850_meantemp_030.txt.gz
Temperature
23 20 19 20 20 21 20 20 19 20 21 20 19 18 17 17 16 16 15 16 16 16 17 17 18 18 18 18 19 19 20 20 20 20 20 20 20 20 20 20 19 19 19 19
19 19 20 21 20 20 19 18 18 19 20 20 17 16 16 15 15 15 14 14 14 15 16 16 17 17 17 17 18 18 19 19 20 20 20 20 20 20 20 20 19 19 19 19
19 20 21 20 19 18 19 18 19 19 19 19 17 15 14 14 14 14 13 13 14 14 14 15 16 16 16 16 16 17 18 18 19 19 20 20 19 19 19 19 19 19 18 18
18 19 19 18 18 18 17 18 19 19 17 16 17 14 12 13 13 13 13 12 13 13 14 14 15 15 15 15 15 16 16 17 18 19 19 19 19 19 19 19 18 18 18 18
18 18 17 17 17 18 17 18 17 18 17 15 15 13 12 12 12 12 12 12 12 12 13 13 14 14 14 14 15 15 15 16 17 17 18 18 19 19 19 18 18 17 17 17
18 19 18 18 18 18 16 16 16 14 13 13 13 13 12 11 11 12 12 12 12 12 12 13 13 13 14 14 14 14 14 15 15 16 16 17 17 18 18 18 17 17 17 16
17 17 18 18 16 16 14 13 13 13 12 13 13 12 11 12 12 11 11 11 11 11 12 12 12 13 13 13 13 13 13 14 14 15 15 15 16 16 16 16 16 16 16 16
16 15 17 17 16 15 15 13 12 13 13 13 13 12 11 12 12 11 11 11 11 11 11 12 12 12 12 13 13 13 13 13 13 14 14 14 14 14 15 15 15 15 15 15
15 16 18 17 16 15 14 13 13 12 13 12 12 12 12 12 12 11 11 11 11 11 11 12 12 12 12 12 12 13 13 13 13 13 13 13 14 14 14 14 14 14 14 14
16 16 17 17 16 15 14 14 11 11 11 11 12 12 11 10 11 11 11 10 11 11 11 12 12 12 12 12 12 12 13 12 12 13 13 13 13 13 13 13 13 13 13 14
16 15 15 15 15 14 13 13 11 10 11 11 11 11 11 10 10 10 10 10 11 11 12 12 12 12 12 12 12 12 12 12 13 13 13 13 13 13 13 13 13 13 13 13
15 12 13 15 16 16 14 13 11 10 10 10 11 11 12 10 10 10 10 11 12 12 12 12 12 12 12 12 12 12 13 13 13 13 13 13 13 13 13 13 13 13 13 13
15 13 12 14 14 14 14 13 12 10 9 10 11 11 12 11 11 11 12 12 13 13 13 13 13 13 12 12 12 12 12 12 13 13 13 13 13 13 13 13 14 14 14 14
15 13 13 14 14 14 14 13 12 11 9 10 11 11 11 11 11 12 13 13 13 14 14 13 13 13 13 12 12 12 12 12 12 12 13 13 13 13 13 13 13 14 14 14
14 14 15 15 15 15 14 13 13 11 11 10 11 11 11 11 12 13 13 14 14 14 14 14 14 13 13 13 12 12 12 12 12 12 12 12 12 12 12 13 13 13 13 13
14 15 15 16 16 15 14 14 13 13 12 12 12 12 12 13 13 13 14 14 14 14 14 14 14 14 13 13 13 12 12 12 12 12 12 12 12 12 12 12 12 12 12 12
14 14 14 14 16 15 14 14 14 13 13 12 12 13 13 13 14 14 14 14 14 14 15 15 14 14 14 13 13 13 12 12 12 12 12 11 12 12 12 12 12 12 12 12
15 14 12 13 15 15 14 15 15 14 14 14 14 14 14 14 14 15 15 15 15 15 15 15 15 15 14 14 13 13 13 12 12 12 11 11 11 11 11 11 11 11 11 11
14 14 13 12 14 14 15 15 15 14 14 15 14 15 15 15 14 15 15 15 15 15 15 15 15 15 14 14 14 14 13 13 12 12 11 11 11 11 11 11 11 11 11 11
14 12 13 13 14 14 14 15 17 15 14 15 15 15 15 14 12 13 15 15 15 15 15 15 15 15 15 14 14 14 14 13 12 12 12 11 11 11 11 11 11 10 10 10
14 14 14 13 14 14 15 16 16 13 13 16 16 16 15 15 13 15 15 15 15 15 15 15 15 15 15 15 14 14 14 13 13 12 12 12 11 11 11 11 11 10 10 10
14 13 13 12 14 14 15 15 14 14 16 16 16 16 16 15 15 15 15 15 15 15 15 15 15 15 15 15 14 14 14 13 13 13 12 12 11 11 11 11 11 10 10 10
14 14 12 13 13 15 17 17 17 17 16 16 16 16 16 15 15 15 15 15 15 14 14 15 15 15 15 15 15 14 14 14 13 13 12 12 11 11 11 11 11 10 10 10
15 15 13 13 14 15 17 17 17 17 17 16 16 16 16 15 15 15 15 15 15 15 15 15 15 15 15 15 14 14 14 14 13 13 12 12 11 11 11 11 10 10 10 10
15 15 14 14 14 15 16 17 17 17 17 16 16 16 15 15 15 15 15 15 15 15 15 15 14 14 14 14 14 14 14 14 13 13 12 12 11 11 11 11 10 10 10 10
15 15 14 14 15 15 16 17 17 16 16 16 16 15 15 15 15 15 15 15 15 15 15 15 15 15 14 15 15 14 14 14 13 13 12 12 12 11 11 11 10 10 10 9

GEFSCGP_850_meantemp_036.txt.gz
Temperature
20 17 16 17 18 19 19 19 18 18 16 15 13 13 13 13 13 12 12 12 12 13 13 14 14 15 15 16 16 17 17 17 18 18 19 19 19 19 20 19 19 19 19 18
16 16 17 18 17 18 18 18 17 17 16 14 13 13 13 13 13 12 12 12 12 12 13 13 14 14 14 15 15 16 16 16 17 17 17 18 19 19 19 19 19 19 19 18
16 17 17 17 15 16 17 17 17 17 15 14 13 13 12 13 13 12 12 12 11 11 12 12 13 13 14 14 14 14 15 15 16 16 17 17 18 18 18 19 19 19 19 18
16 17 16 16 15 15 15 16 16 16 15 12 13 12 11 11 11 12 12 11 11 11 12 12 12 12 13 13 13 13 14 14 15 15 15 16 16 17 18 18 18 18 18 18
17 16 15 15 16 15 15 15 15 15 13 11 11 11 11 10 10 11 11 11 11 11 11 11 12 12 12 13 13 13 13 13 14 14 14 15 15 16 16 17 17 17 17 18
16 17 16 15 15 15 14 14 13 11 11 11 11 11 11 10 10 10 11 11 11 11 11 11 12 12 12 13 13 13 13 13 13 14 14 14 15 15 15 16 16 16 16 16
15 15 15 15 14 14 12 12 13 13 11 11 11 11 11 11 11 11 11 11 11 11 11 11 11 12 12 12 12 12 12 13 13 13 13 14 14 14 15 15 15 15 15 15
15 14 15 15 14 13 12 11 12 13 12 11 11 11 11 12 12 11 11 11 11 11 11 11 11 11 11 12 12 12 12 12 13 13 13 13 13 14 14 14 14 15 15 15
14 14 16 15 14 14 13 11 11 10 11 11 11 12 12 12 11 11 11 11 11 11 11 11 11 11 11 12 12 12 12 12 13 13 13 13 13 13 13 14 14 14 14 14
14 14 15 15 14 13 12 11 9 10 11 11 11 11 10 10 11 11 11 11 11 12 12 11 11 11 11 11 12 12 12 12 12 13 13 13 13 13 13 13 13 14 14 14
14 13 14 14 13 12 12 11 9 8 9 10 10 11 11 10 10 10 11 11 12 12 12 12 12 11 11 11 12 12 12 12 12 12 13 13 13 13 13 13 13 13 13 13
12 11 12 14 14 13 12 10 10 9 9 9 10 10 12 10 11 11 11 12 13 13 12 12 12 12 12 11 11 11 11 12 12 12 12 12 13 13 13 13 13 13 13 13
13 12 12 13 13 13 12 11 9 8 8 9 10 11 12 11 12 12 12 13 13 13 13 13 13 12 12 12 11 11 11 11 11 12 12 12 12 12 13 13 13 13 13 13
13 11 12 14 13 13 13 12 11 9 8 9 10 11 11 11 10 12 13 13 13 13 13 13 13 13 12 12 12 11 11 11 11 11 12 12 12 12 12 12 12 13 13 13
13 13 13 13 14 13 13 12 11 11 9 9 11 11 11 11 11 12 13 13 14 14 14 13 13 13 13 12 12 12 11 11 11 11 11 11 11 11 11 12 12 12 12 12
12 13 14 14 14 14 13 13 12 11 11 11 11 11 11 13 13 13 13 14 14 14 14 14 14 13 13 13 12 12 11 11 11 11 11 11 11 11 11 11 11 11 11 11
11 12 12 12 13 13 13 13 12 12 11 11 11 11 12 13 13 14 14 14 14 14 14 14 14 14 13 13 13 12 12 11 11 11 11 11 10 10 10 10 11 11 11 11
11 11 10 11 13 13 13 13 13 13 13 11 12 12 13 14 14 14 14 14 14 14 14 14 14 14 14 13 13 12 12 12 11 11 11 11 10 10 10 10 10 10 10 10
11 11 10 10 12 13 14 13 13 13 13 12 12 13 14 14 14 14 14 14 14 14 14 14 14 14 14 14 13 13 12 12 12 11 11 11 10 10 10 10 10 10 10 10
11 10 10 10 14 14 15 14 15 14 13 14 14 14 14 13 11 12 15 14 14 14 14 14 14 14 14 14 13 13 13 12 12 11 11 11 11 10 10 10 10 10 10 10
13 11 11 11 12 12 13 14 15 12 13 15 15 15 14 14 13 15 15 14 14 14 14 14 14 14 14 14 14 13 13 13 12 12 11 11 11 10 10 10 10 10 10 10
12 11 11 10 12 13 14 13 13 13 16 16 16 16 15 15 15 15 15 15 14 14 14 14 14 14 14 14 14 14 13 13 12 12 11 11 11 10 10 10 10 10 10 10
11 12 10 11 13 15 15 16 17 17 17 17 17 16 16 15 15 15 15 15 14 14 14 14 14 14 14 14 14 14 13 13 12 12 11 11 11 10 10 10 10 10 10 9
12 11 10 10 11 14 16 16 17 17 18 17 17 16 16 16 15 15 15 15 15 14 14 14 14 14 14 14 14 14 13 13 13 12 12 11 11 10 10 10 10 10 9 9
13 10 11 12 12 14 16 17 17 17 17 17 17 16 16 16 16 15 15 15 15 15 15 14 14 14 14 14 14 14 13 13 13 12 12 11 11 10 10 10 10 9 9 9
12 12 13 14 16 15 18 18 17 17 17 17 17 16 16 16 16 15 15 15 15 15 15 15 15 14 14 14 14 14 14 13 13 12 12 11 11 10 10 10 10 9 9 9

GEFSCGP_850_meantemp_042.txt.gz
Temperature
24 25 23 23 23 24 24 24 23 20 19 19 17 17 17 16 16 16 16 16 15 15 15 14 14 14 14 14 14 14 14 15 15 16 17 17 17 18 18 18 18 18 18 18
25 23 21 22 22 23 23 23 22 19 19 19 17 17 17 16 16 15 15 15 15 15 14 14 14 13 13 13 13 13 13 14 14 15 15 16 16 17 17 17 17 17 17 17
24 21 21 22 22 22 22 22 21 19 18 19 18 17 18 17 17 16 15 15 15 14 14 13 13 13 13 12 12 13 13 13 13 14 14 15 15 16 16 16 16 17 17 17
22 21 21 21 21 21 21 20 19 19 20 19 19 19 17 17 17 16 15 15 14 13 13 13 12 12 12 12 12 12 12 12 13 13 14 14 14 15 15 15 16 16 17 17
21 20 21 21 19 19 20 19 19 20 20 20 19 20 18 17 16 16 15 14 14 13 13 12 12 12 12 12 12 12 12 12 13 13 13 13 14 14 14 15 15 16 16 16
20 19 20 20 19 18 19 19 19 20 20 19 18 18 16 16 15 15 15 14 14 13 12 12 12 12 12 12 12 12 12 12 13 13 13 13 13 14 14 14 15 15 15 16
20 20 19 19 20 19 20 20 21 20 20 19 17 17 16 16 15 15 15 14 14 13 12 12 12 11 11 11 12 12 12 12 12 13 13 13 13 13 14 14 14 15 15 15
22 20 19 19 19 19 19 20 21 21 21 18 17 17 16 16 15 15 15 14 14 13 12 12 11 11 11 11 11 12 12 12 12 12 12 13 13 13 13 13 14 14 14 14
22 20 18 18 18 19 19 19 19 20 19 19 18 17 16 16 16 15 15 14 14 13 13 12 12 12 11 11 11 11 11 11 12 12 12 13 13 13 13 13 13 13 14 14
22 20 19 18 19 18 18 18 19 20 19 19 17 17 16 16 16 16 15 15 14 13 13 12 12 12 11 11 11 11 11 11 11 12 12 12 12 13 13 13 13 13 13 13
21 21 19 19 18 18 18 18 18 18 18 19 17 16 16 15 15 15 15 15 14 14 13 13 12 12 12 11 11 11 11 11 11 11 12 12 12 12 12 13 13 13 13 13
20 22 21 19 17 17 17 17 18 19 18 17 17 16 16 16 15 15 15 15 14 14 14 13 13 12 12 12 11 11 11 11 11 11 11 11 12 12 12 12 12 13 13 13
20 21 21 20 18 18 17 16 16 17 18 18 18 17 16 16 15 15 15 14 14 14 14 14 13 13 12 12 12 11 11 11 11 11 11 11 11 11 11 12 12 12 12 12
19 21 21 21 20 19 18 16 16 17 18 18 18 17 16 16 16 15 15 15 15 15 14 14 13 13 13 12 12 12 11 11 11 11 11 11 11 11 11 11 11 11 12 12
21 21 20 19 18 18 18 17 16 17 18 18 17 17 17 17 16 15 15 15 15 15 15 14 14 13 13 13 12 12 11 11 11 10 10 10 10 10 10 11 11 11 11 11
21 20 20 19 18 18 18 18 17 17 17 17 16 17 17 16 16 15 16 15 15 15 15 14 14 14 13 13 12 12 11 11 11 11 10 10 10 10 10 10 10 11 11 11
21 21 20 21 18 18 20 20 18 18 18 18 17 18 17 17 16 16 16 15 15 15 14 14 14 14 13 13 12 12 12 11 11 11 10 10 10 10 10 10 10 10 10 11
21 21 20 20 19 20 21 20 19 18 18 18 18 18 17 17 16 15 15 15 15 15 14 14 14 14 13 13 13 12 12 11 11 11 10 10 10 10 10 10 10 10 10 10
20 20 20 21 21 21 20 18 18 18 19 19 18 18 17 16 16 16 16 15 15 14 14 14 14 14 14 13 13 12 12 12 11 11 11 10 10 10 10 10 10 10 10 10
18 20 20 20 20 22 22 20 18 19 19 20 18 18 17 17 18 18 16 15 15 14 14 14 14 13 13 13 13 13 12 12 11 11 11 10 10 10 10 10 10 10 10 9
19 19 20 20 21 22 21 18 18 19 22 20 19 18 17 17 19 17 15 15 14 14 14 14 14 13 13 13 13 13 12 12 12 11 11 10 10 10 10 10 10 9 9 9
22 21 20 20 21 22 18 18 19 21 20 19 19 18 18 17 17 16 15 15 14 14 14 14 14 14 14 13 13 13 12 12 12 11 11 10 10 10 10 10 10 9 9 9
21 22 22 22 23 21 18 19 19 19 19 19 18 18 17 17 16 16 15 15 15 14 14 14 14 14 13 13 13 13 13 12 12 11 11 10 10 10 10 10 9 9 9 9
22 19 20 21 22 20 18 18 18 18 19 18 18 18 17 17 16 16 15 15 15 15 15 15 14 14 14 14 13 13 13 12 12 11 11 11 10 10 10 10 9 9 9 9
22 19 20 21 22 20 18 18 17 17 17 17 18 17 17 17 16 16 16 15 15 15 15 15 15 14 14 14 13 13 13 12 12 11 11 11 10 10 10 10 10 9 9 9
21 21 21 23 24 23 22 20 18 17 17 17 17 17 17 17 16 16 16 16 15 15 15 15 15 15 14 14 14 14 13 13 12 12 11 11 11 10 10 10 10 10 9 9

GEFSCGP_850_meantemp_048.txt.gz
Temperature
28 28 26 26 27 26 27 26 26 24 23 23 22 21 20 20 20 19 19 19 18 17 17 16 15 15 15 15 15 14 15 15 15 15 15 15 16 16 16 17 17 17 18 18
28 26 26 27 27 27 27 26 26 24 23 23 22 21 21 20 19 19 18 18 17 16 16 15 15 14 14 14 14 14 14 14 14 14 14 14 15 15 16 16 16 17 17 17
27 25 26 26 26 26 26 25 24 24 23 23 22 21 20 20 19 19 18 17 16 16 15 15 14 14 13 13 13 13 13 13 14 14 14 14 14 15 15 15 16 16 16 17
26 26 26 26 25 24 24 24 23 23 22 22 22 20 19 20 19 19 18 17 16 15 15 14 14 13 13 13 13 13 13 13 13 13 14 14 14 14 14 15 15 15 16 16
25 25 25 25 24 23 23 23 23 23 22 22 23 22 19 20 18 18 18 17 16 15 14 14 13 13 13 13 13 13 13 13 13 13 13 13 14 14 14 14 15 15 15 16
24 24 24 23 24 23 23 23 23 23 23 22 23 22 19 18 18 18 17 17 16 15 14 14 13 13 13 13 13 12 12 13 13 13 13 13 13 13 14 14 14 15 15 15
24 24 24 23 24 24 24 23 22 22 21 22 22 21 18 18 18 18 17 17 16 15 14 14 13 13 13 13 13 12 12 12 12 12 13 13 13 13 13 14 14 14 15 15
26 24 23 23 22 22 24 23 22 21 22 21 21 20 18 19 18 18 17 16 16 15 15 14 14 13 13 13 13 12 12 12 12 12 12 13 13 13 13 13 13 14 14 14
27 23 22 22 22 23 23 23 23 22 23 23 22 20 18 19 19 18 17 17 16 15 15 14 14 14 13 13 13 12 12 12 12 12 12 12 12 12 13 13 13 13 14 14
26 24 23 23 22 23 23 22 23 22 21 21 22 21 19 18 18 18 18 17 16 16 15 15 14 14 14 13 13 13 12 12 12 12 12 12 12 12 12 13 13 13 13 13
26 25 23 23 23 22 22 23 22 23 22 21 20 19 20 19 18 18 18 17 16 16 16 15 15 14 14 14 13 13 12 12 12 12 12 12 12 12 12 12 12 12 13 13
25 25 25 23 22 22 22 21 21 21 21 22 20 19 20 19 18 18 17 17 17 16 16 16 15 15 14 14 13 13 12 12 12 12 12 12 11 11 12 12 12 12 12 12
24 24 24 22 21 21 22 21 21 21 22 22 21 19 20 19 18 18 17 17 17 17 16 16 15 15 14 14 13 13 12 12 12 12 11 11 11 11 11 11 11 12 12 12
21 24 24 22 22 23 22 21 21 21 21 22 22 20 19 19 19 18 17 17 17 17 17 16 16 15 15 14 14 13 13 12 12 12 11 11 11 11 11 11 11 11 11 12
23 24 25 24 23 23 22 22 22 21 21 21 21 21 21 20 19 18 18 17 17 17 17 17 16 16 15 15 14 13 13 12 12 12 11 11 11 11 11 11 11 11 11 11
24 24 24 24 23 23 23 23 22 22 21 21 21 21 21 20 19 18 18 18 18 17 17 17 16 16 15 15 14 14 13 13 12 12 11 11 11 11 11 11 11 11 11 11
25 24 24 25 24 23 23 24 23 22 22 22 21 21 21 20 19 19 18 18 18 17 17 16 16 16 16 15 15 14 13 13 12 12 11 11 11 11 10 10 10 10 10 10
25 24 24 24 25 24 24 25 24 23 23 23 22 22 21 20 19 19 18 18 18 17 17 16 16 16 16 15 15 14 14 13 12 12 11 11 11 10 10 10 10 10 10 10
24 24 23 24 24 25 23 24 23 22 22 24 23 22 21 20 19 19 18 18 18 17 17 16 16 16 16 15 15 15 14 13 12 12 11 11 11 10 10 10 10 10 9 9
23 23 23 23 23 24 24 24 23 23 22 24 23 22 21 20 19 19 19 18 18 17 16 16 16 16 15 15 15 15 14 13 12 12 11 11 11 11 10 10 10 10 9 9
22 22 22 22 23 25 24 23 23 21 23 24 23 22 21 20 20 20 19 18 17 17 16 16 16 15 15 15 15 14 14 13 12 12 11 11 11 11 10 10 10 10 9 9
25 25 24 24 24 24 23 22 23 24 24 24 23 22 21 21 20 19 18 18 17 17 16 16 16 15 15 15 14 14 14 13 12 12 11 11 11 11 10 10 10 10 10 9
25 26 25 25 25 23 22 23 24 24 24 24 23 22 21 21 20 19 18 18 17 17 16 16 16 15 15 15 15 14 14 13 12 12 12 11 11 11 11 10 10 10 10 10
27 27 25 25 26 26 24 23 23 23 23 23 23 22 21 21 20 19 18 18 17 17 17 16 16 16 16 15 15 14 14 13 13 12 12 12 11 11 11 11 10 10 10 10
26 25 25 25 25 26 26 24 23 23 22 22 22 22 21 20 20 19 18 18 18 17 17 16 16 16 16 15 15 14 14 14 13 13 13 12 12 11 11 11 11 10 10 10
26 26 25 24 26 26 26 25 23 23 22 22 22 21 21 20 20 19 19 18 18 17 17 17 16 16 16 16 15 15 14 14 14 14 14 13 12 12 12 11 11 11 10 10

GEFSCGP_850_meantemp_054.txt.gz
Temperature
24 21 21 22 23 23 22 21 19 19 20 18 16 16 16 17 17 16 16 16 16 15 15 15 14 14 14 14 14 13 13 13 14 14 14 15 15 15 15 15 15 15 16 16
20 21 23 24 23 21 20 19 19 20 20 18 16 16 16 17 16 16 16 16 15 15 15 14 14 14 13 13 13 13 13 13 13 13 13 14 14 14 14 15 15 15 15 16
21 22 24 22 21 21 20 19 19 19 19 18 16 16 16 16 16 16 16 15 15 15 14 14 14 13 13 13 13 13 13 13 13 13 13 13 14 14 14 14 15 15 15 15
22 22 22 20 20 20 20 21 21 20 18 16 17 14 15 15 15 15 15 15 15 15 14 14 14 13 13 13 13 12 12 12 13 13 13 13 13 13 14 14 14 15 15 15
21 21 20 20 21 21 20 21 21 20 18 17 16 14 14 15 14 14 15 15 15 15 14 14 14 13 13 13 13 12 12 12 12 12 12 13 13 13 13 13 14 14 14 15
21 22 21 21 21 21 21 19 18 16 15 16 17 15 14 13 14 15 15 15 15 15 15 14 14 14 13 13 13 12 12 12 12 12 12 12 12 12 13 13 13 14 14 14
20 21 21 21 20 20 19 16 15 16 15 15 16 15 14 14 15 15 15 15 15 15 15 14 14 14 13 13 13 12 12 12 12 12 12 12 12 12 12 12 13 13 14 14
19 18 20 20 20 19 19 16 16 16 16 15 17 15 14 15 16 16 16 15 15 15 15 15 14 14 14 13 13 13 12 12 12 12 12 12 12 12 12 12 12 13 13 13
18 18 20 21 21 20 19 17 16 15 16 16 15 15 15 15 15 15 15 15 15 15 15 15 15 14 14 13 13 13 12 12 12 12 12 11 12 12 12 12 12 12 13 13
18 18 20 20 20 20 19 18 15 15 16 16 16 15 13 14 14 15 15 15 16 16 15 15 15 14 14 13 13 13 12 12 12 11 11 11 11 11 12 12 12 12 12 13
19 17 19 19 19 19 19 18 15 13 14 15 15 14 15 14 14 14 15 16 16 16 16 15 15 14 14 14 13 13 12 12 12 11 11 11 11 11 11 12 12 12 12 12
18 15 16 18 18 19 19 18 15 15 15 14 13 14 16 15 15 16 16 16 16 16 16 15 15 15 14 14 13 13 12 12 12 11 11 11 11 11 11 11 11 12 12 12
18 16 16 18 17 18 19 19 17 14 13 14 14 15 15 15 15 16 16 16 16 16 16 16 15 15 14 14 13 13 13 12 12 11 11 11 11 11 11 11 11 11 11 12
18 16 17 18 17 17 18 18 18 15 14 14 15 16 15 14 14 16 16 16 16 16 16 16 15 15 15 14 14 13 13 12 12 11 11 11 11 11 11 11 11 11 11 11
17 18 19 18 19 19 19 19 18 17 15 15 16 16 15 14 15 16 17 17 16 16 16 16 16 15 15 14 14 13 13 12 12 11 11 11 11 10 10 10 10 10 11 11
17 19 19 19 19 20 20 19 18 17 17 16 16 16 16 17 17 16 17 17 17 16 16 16 16 15 15 14 14 14 13 13 12 12 11 11 11 10 10 10 10 10 10 10
17 18 18 18 19 20 19 19 18 18 18 17 16 16 16 15 15 17 17 17 17 17 16 16 16 15 15 14 14 14 13 13 12 12 11 11 11 10 10 10 10 10 10 10
17 16 15 16 19 19 19 20 20 19 19 18 18 17 16 17 18 18 18 17 17 17 16 16 16 15 15 14 14 14 13 13 12 12 11 11 10 10 10 10 10 10 10 10
16 17 16 15 18 18 20 21 21 20 19 19 17 17 18 18 17 17 18 18 18 17 17 16 16 15 15 15 14 14 13 13 12 12 11 11 10 10 10 10 10 10 10 9
16 14 15 16 18 19 20 21 21 20 19 20 19 17 18 17 14 15 18 18 18 17 17 16 16 16 15 15 14 14 13 13 12 12 11 11 11 10 10 10 10 10 9 9
17 16 15 16 17 17 19 21 21 19 19 21 21 20 19 17 18 20 19 18 18 17 17 17 16 16 15 15 14 14 13 13 12 12 11 11 11 10 10 10 10 10 10 9
16 15 15 14 17 18 20 20 18 19 22 22 22 22 21 21 20 20 19 19 18 17 17 17 16 16 16 15 15 14 14 13 12 12 12 11 11 11 10 10 10 10 10 10
15 16 15 15 17 20 22 22 24 23 23 23 22 22 22 21 20 20 19 19 18 18 17 17 17 16 16 15 15 15 14 14 13 12 12 12 11 11 11 11 10 10 10 10
18 18 17 18 19 21 23 23 23 23 23 23 22 22 22 21 21 20 19 19 18 18 17 17 17 17 16 16 16 15 15 14 13 13 12 12 12 11 11 11 11 10 10 10
18 18 18 19 19 22 23 24 24 24 23 23 22 22 22 21 21 20 19 19 18 18 18 17 17 17 17 16 16 16 15 14 14 13 13 12 12 12 11 11 11 11 10 10
13 14 16 17 18 18 21 22 23 23 23 22 22 22 22 21 21 21 20 19 19 18 18 18 17 17 17 17 17 16 16 15 14 14 13 13 13 12 12 11 11 11 11 11

GEFSCGP_850_meantemp_060.txt.gz
Temperature
22 20 20 21 21 21 20 19 18 18 17 16 15 15 15 15 15 15 15 15 15 15 14 14 14 13 13 13 13 13 13 13 13 13 13 13 14 14 14 14 14 14 15 15
20 20 21 20 19 19 18 18 17 17 17 16 15 15 15 15 15 15 15 15 15 14 14 14 14 13 13 13 13 13 12 12 12 12 13 13 13 13 13 13 13 14 14 14
20 20 20 20 19 19 18 17 17 17 16 15 15 14 14 15 15 15 15 15 15 14 14 14 14 13 13 13 13 12 12 12 12 12 12 13 13 13 13 13 13 13 13 14
19 20 20 19 19 19 19 19 18 17 15 14 15 14 14 13 14 14 14 15 15 14 14 14 14 13 13 13 12 12 12 12 12 12 12 12 12 12 12 12 13 13 13 13
20 20 20 19 19 19 18 18 17 17 15 14 14 14 13 13 13 13 14 15 15 14 14 14 14 13 13 13 12 12 12 12 12 12 12 12 12 12 12 12 12 13 13 13
19 20 19 19 19 19 17 16 15 13 13 14 15 14 14 12 13 13 14 15 15 15 14 14 14 14 13 13 13 12 12 12 12 11 11 11 12 12 12 12 12 12 12 13
19 19 19 19 19 18 16 15 14 15 14 14 15 14 13 14 13 14 14 15 15 15 15 14 14 14 13 13 13 12 12 12 12 11 11 11 11 11 11 11 12 12 12 12
19 18 19 19 18 17 16 15 15 16 14 13 14 14 14 15 15 15 15 15 15 15 15 15 14 14 14 13 13 12 12 12 11 11 11 11 11 11 11 11 11 11 12 12
18 18 19 19 18 17 16 14 14 13 14 14 13 14 14 14 14 14 15 15 15 15 15 15 15 14 14 13 13 12 12 12 11 11 11 11 11 11 11 11 11 11 11 12
17 18 18 19 18 17 17 13 12 13 14 14 14 14 14 15 13 13 13 14 15 15 15 15 15 14 14 13 13 12 12 12 11 11 11 11 11 11 11 11 11 11 11 12
17 16 17 18 18 17 16 15 12 11 12 13 13 13 14 15 14 13 14 15 16 16 15 15 15 15 14 14 13 13 12 12 11 11 11 11 11 11 11 11 11 11 11 11
15 14 15 17 17 17 17 16 13 14 13 11 12 12 14 14 14 14 15 16 16 16 16 15 15 15 14 14 13 13 12 12 12 11 11 11 11 10 11 10 10 11 11 11
15 14 16 17 16 17 17 15 13 11 11 10 12 13 14 14 14 15 15 16 16 16 16 16 15 15 15 14 14 13 13 12 12 11 11 11 11 10 10 10 10 10 10 10
16 15 16 17 16 16 17 16 13 13 12 12 12 13 14 14 13 14 15 16 16 16 16 16 15 15 15 14 14 13 13 12 12 12 11 11 11 10 10 10 10 10 10 10
15 16 17 17 17 16 17 16 14 14 13 13 14 13 14 14 14 16 16 16 16 16 16 16 16 15 15 14 14 14 13 13 12 12 11 11 10 10 10 10 10 10 10 10
14 17 18 18 18 17 17 17 15 14 14 13 13 13 14 15 16 16 16 16 16 16 16 16 16 15 15 15 14 14 13 13 12 12 11 11 10 10 10 10 10 9 9 9
14 16 16 17 17 18 18 17 16 16 15 15 15 15 15 15 16 17 18 17 17 17 17 16 16 16 15 15 14 14 13 13 12 12 11 11 10 10 10 10 10 9 9 9
14 13 12 15 18 19 18 18 17 17 16 14 15 15 16 17 18 19 19 18 18 17 17 16 16 16 15 15 15 14 14 13 12 12 11 11 10 10 10 10 10 10 9 9
13 13 13 13 16 17 18 19 18 18 18 17 15 15 17 17 17 18 20 19 18 18 17 17 16 16 16 15 15 14 14 13 13 12 11 11 11 10 10 10 10 10 10 9
12 12 12 13 17 18 19 19 19 19 19 19 18 17 17 15 14 16 20 20 19 18 17 17 16 16 16 15 15 15 14 13 13 12 12 11 11 11 10 10 10 10 10 10
15 13 13 14 16 15 16 18 19 19 18 20 20 20 18 16 17 20 20 20 19 18 17 17 16 16 16 16 15 15 14 14 13 13 12 12 11 11 11 10 10 10 10 10
14 13 13 12 15 17 18 18 17 18 20 21 21 21 20 21 21 20 20 20 19 19 18 17 17 17 16 16 16 15 15 14 14 13 13 12 11 11 11 11 10 10 10 10
13 14 12 14 15 17 17 17 18 19 19 20 20 20 20 21 21 21 20 20 19 19 18 18 17 17 16 16 16 16 15 15 14 14 13 13 12 12 11 11 11 10 10 10
13 13 12 13 15 16 16 17 18 19 19 20 20 20 20 20 20 20 20 20 19 19 19 18 17 17 17 17 16 16 16 15 15 14 14 13 12 12 12 11 11 11 11 10
14 13 13 14 15 16 16 15 17 18 20 20 20 20 20 20 20 20 20 20 20 19 19 18 18 18 17 17 17 16 16 15 15 15 14 14 13 13 12 12 11 11 11 11
10 12 13 14 13 12 13 14 16 18 19 19 20 20 19 19 19 19 20 20 19 19 19 18 18 18 18 17 17 17 16 16 16 15 15 14 14 13 13 12 12 12 11 11

GEFSCGP_850_meantemp_066.txt.gz
Temperature
26 27 27 27 27 26 26 26 25 24 22 22 22 22 22 20 19 19 19 19 18 18 17 16 15 14 14 14 13 13 12 12 12 12 12 12 12 12 12 12 13 13 13 14
26 26 26 26 25 25 25 25 24 22 21 22 22 22 22 21 20 19 19 19 18 17 17 16 15 15 14 14 13 13 12 12 12 12 12 12 12 12 12 12 12 13 13 13
27 25 25 25 25 25 25 24 24 23 21 21 22 23 22 21 20 19 18 18 18 17 17 16 15 15 14 14 13 13 12 12 12 12 11 11 12 12 12 12 12 12 13 13
25 24 25 25 25 25 24 23 22 22 22 23 22 23 23 22 21 20 19 18 18 17 16 16 15 15 14 14 13 13 12 12 11 11 11 11 11 12 11 12 12 12 12 13
24 24 25 25 24 24 23 22 22 22 23 23 22 23 24 22 22 21 20 19 18 17 16 16 15 14 14 13 13 12 12 12 11 11 11 11 11 11 11 11 12 12 12 12
23 23 24 24 22 22 22 22 22 22 23 23 23 22 23 23 22 21 20 19 18 17 16 15 15 14 14 13 13 12 12 11 11 11 11 11 11 11 11 11 11 12 12 12
23 23 23 23 23 22 23 23 23 23 23 23 22 22 23 23 22 21 20 19 18 17 16 16 15 15 14 13 13 12 12 12 11 11 11 11 11 11 11 11 11 11 12 12
24 23 23 23 23 23 23 23 23 23 23 23 22 22 24 22 20 19 19 18 17 17 16 16 15 15 14 14 13 13 12 12 11 11 11 11 11 11 11 11 11 11 11 11
25 23 22 22 22 23 23 23 23 23 23 23 24 23 23 21 20 19 19 18 18 17 16 16 15 15 14 14 13 13 12 12 11 11 11 11 11 11 11 11 11 11 11 11
26 23 22 21 22 21 23 23 22 23 22 23 23 23 23 23 22 21 20 19 18 17 17 16 16 15 15 14 14 13 13 12 12 11 11 11 11 10 10 10 10 10 10 10
25 24 22 22 22 23 21 21 22 22 22 22 23 23 23 23 22 21 21 19 18 18 17 16 16 15 15 14 14 13 13 12 12 11 11 11 11 10 10 10 10 10 10 10
24 25 24 23 21 21 22 22 22 22 22 21 22 23 23 22 21 20 20 19 18 17 17 16 16 15 15 14 14 14 13 13 12 12 11 11 10 10 10 10 10 10 10 10
23 24 23 22 21 21 21 21 21 21 22 22 22 24 22 22 21 20 19 19 18 17 17 16 16 15 15 15 14 14 13 13 12 12 11 11 11 10 10 10 10 10 10 10
22 24 24 24 24 23 21 20 20 21 22 22 22 23 23 23 22 21 20 19 18 18 17 17 16 16 15 15 14 14 13 13 12 12 11 11 11 10 10 10 10 10 10 10
23 24 24 23 22 22 22 21 20 21 22 22 23 22 23 23 22 21 20 19 18 18 17 17 16 16 16 15 15 14 14 13 13 12 12 11 11 10 10 10 10 10 10 10
23 23 23 22 22 22 22 22 21 21 21 21 22 22 23 22 21 20 20 19 18 18 18 17 17 16 16 16 15 14 14 13 13 12 12 11 11 10 10 10 10 10 10 10
23 23 23 23 22 22 23 24 22 22 22 22 22 23 23 22 21 21 20 19 19 18 18 17 17 17 16 16 15 15 14 14 13 12 12 11 11 11 10 10 10 10 10 10
23 23 23 23 23 22 25 23 23 22 23 23 22 23 22 21 20 19 19 19 19 18 18 17 17 17 16 16 15 15 14 14 13 13 12 12 11 11 11 10 10 10 10 10
22 23 23 23 23 23 23 22 22 22 23 23 23 23 22 20 20 22 20 19 19 18 18 17 17 17 16 16 15 15 15 14 14 13 13 12 12 11 11 10 10 10 10 10
20 22 23 22 22 23 24 23 22 23 23 23 23 23 22 21 24 23 20 19 19 18 18 17 17 17 16 16 16 15 15 15 14 13 13 12 12 12 11 11 11 11 10 10
21 21 22 22 23 24 24 21 22 23 24 23 22 22 21 22 23 21 19 19 19 19 18 18 17 17 16 16 16 15 15 15 14 14 14 13 13 12 12 11 11 11 11 10
23 22 22 22 22 23 21 21 23 24 22 21 21 21 20 20 19 19 19 19 19 19 18 18 17 17 17 16 16 16 16 15 15 15 14 14 13 13 12 12 12 11 11 11
23 24 24 24 24 20 18 20 18 18 20 20 20 19 19 19 19 18 18 19 19 19 18 18 18 17 17 17 17 16 16 15 15 15 15 14 14 13 13 13 12 12 11 11
23 20 22 22 22 19 17 16 16 16 17 18 18 18 18 18 18 18 18 18 18 18 18 18 18 17 17 17 17 17 16 16 15 15 15 15 14 14 13 13 13 12 12 11
23 20 22 23 21 18 16 15 15 15 16 17 17 17 17 18 18 17 17 18 18 18 18 18 18 18 17 17 17 16 16 16 16 15 15 15 14 14 14 14 14 13 13 12
22 21 22 24 22 21 19 15 14 15 15 16 16 16 17 17 17 17 17 17 17 17 17 17 17 17 17 16 16 16 16 16 16 15 15 15 15 15 14 14 14 14 14 13

GEFSCGP_850_meantemp_072.txt.gz
Temperature
27 27 27 26 26 25 25 25 26 27 26 26 26 26 26 25 24 23 23 23 23 22 21 19 18 18 17 16 16 15 15 14 14 13 13 13 13 13 13 13 13 13 13 13
27 27 27 27 25 25 26 26 27 27 27 26 25 26 27 26 24 24 24 23 23 22 21 20 19 18 17 16 16 15 15 14 13 13 13 13 13 13 13 13 13 13 13 13
27 28 28 27 26 26 26 27 27 26 27 26 25 25 26 26 25 24 23 23 22 21 21 20 18 18 17 16 15 15 14 14 13 13 13 13 13 13 13 13 13 13 13 13
26 27 27 27 27 27 26 27 26 26 25 25 26 24 26 25 24 24 23 23 22 21 20 19 18 17 17 16 15 15 14 14 13 13 12 12 12 12 12 12 12 12 13 13
26 27 27 27 27 27 27 26 26 26 25 25 26 25 26 25 24 24 24 23 22 21 20 19 18 17 17 16 15 14 14 13 13 12 12 12 12 12 12 12 12 12 12 12
26 28 28 28 27 27 27 26 26 26 25 24 26 26 25 25 25 24 24 23 22 21 20 19 18 17 16 16 15 14 14 13 13 13 13 13 13 12 12 12 12 12 12 12
26 27 27 27 26 26 26 25 24 24 24 25 27 25 25 24 25 24 24 23 22 21 20 19 18 17 17 16 15 15 14 14 13 13 13 13 13 12 12 12 12 12 12 12
26 25 26 27 27 26 26 26 24 24 25 26 26 25 24 25 24 23 23 22 21 20 20 19 18 17 17 16 16 15 14 14 14 13 13 13 13 12 12 12 12 12 12 12
26 26 27 27 27 26 26 26 27 25 25 25 26 26 24 24 24 23 23 22 21 21 20 19 18 18 17 17 16 15 15 14 14 13 13 13 12 12 12 12 12 12 11 11
27 25 25 25 26 25 26 26 26 25 24 25 26 26 24 23 24 24 23 23 22 21 20 19 19 18 17 17 16 16 15 15 14 14 13 13 13 12 12 12 12 11 11 11
27 26 25 25 24 25 25 25 25 25 25 24 24 24 25 24 24 24 24 23 22 21 20 20 19 18 17 17 17 16 16 15 14 14 13 13 13 12 12 12 12 11 11 11
27 27 26 25 26 26 26 26 25 24 25 25 24 24 25 25 24 24 24 23 22 21 20 20 19 18 18 17 17 16 16 15 15 14 13 13 13 13 12 12 12 11 11 11
27 26 25 25 24 24 24 25 25 25 24 24 24 24 25 25 25 24 23 23 22 21 20 20 19 18 18 17 17 16 16 15 15 14 13 13 13 13 12 12 12 11 11 11
25 25 25 25 25 25 24 25 25 24 23 24 25 25 25 25 25 24 23 23 22 21 21 20 19 18 18 17 17 17 16 16 15 14 14 13 13 13 12 12 12 11 11 11
26 25 26 27 27 26 26 25 25 24 24 24 25 25 25 25 24 24 23 23 22 21 21 20 19 19 18 18 17 17 17 16 15 15 14 14 13 13 12 12 12 11 11 11
25 25 26 26 27 26 25 26 25 25 25 25 25 25 26 25 24 24 23 23 22 22 21 21 20 19 19 18 18 17 17 16 16 15 15 14 13 13 12 12 12 12 11 11
25 25 25 25 26 26 25 26 26 25 25 25 24 25 25 25 24 24 23 23 22 22 21 21 20 20 19 19 18 18 17 16 16 15 15 14 14 13 13 12 12 12 11 11
26 25 25 25 26 24 26 28 27 26 26 26 26 26 25 25 24 23 23 22 22 22 21 20 20 20 19 19 18 18 17 17 16 16 15 15 14 14 13 13 12 12 12 11
26 25 25 25 25 25 26 26 27 26 25 27 26 26 25 25 24 23 23 22 22 21 21 20 20 20 19 19 19 18 18 17 17 16 16 15 14 14 14 13 13 12 12 12
25 25 24 24 24 24 27 27 27 26 25 27 26 26 25 25 23 22 22 21 21 20 20 20 19 19 19 19 19 18 18 17 17 17 16 15 15 15 14 14 14 13 13 12
23 23 23 23 24 26 26 26 26 24 25 26 26 26 25 25 23 22 21 21 20 20 19 19 19 19 19 18 18 18 18 17 17 17 16 16 15 15 15 14 14 14 13 13
24 24 23 23 23 24 25 25 25 26 26 26 25 25 24 23 22 22 21 20 20 19 19 18 18 18 18 18 18 17 17 17 17 16 16 16 16 15 15 14 14 14 14 13
26 26 25 25 25 25 25 25 25 25 26 25 25 24 23 23 22 21 21 20 19 19 19 18 18 18 18 17 17 17 17 17 16 16 16 16 15 15 15 15 15 14 14 14
27 28 27 26 25 24 25 24 23 24 24 24 23 23 22 22 22 21 20 19 19 18 18 18 18 17 17 17 17 17 17 16 16 16 16 16 15 15 15 15 15 15 14 14
26 27 26 25 26 25 24 24 23 22 22 22 22 22 22 21 21 20 19 18 18 18 17 17 17 17 16 16 16 16 16 16 16 15 15 15 15 16 16 15 15 15 15 14
27 26 25 25 26 25 24 23 23 22 21 21 21 20 20 20 20 19 18 17 17 17 16 16 16 16 15 15 16 16 16 15 15 15 15 15 15 15 15 15 15 15 15 15

GEFSCGP_850_meantemp_078.txt.gz
Temperature
23 20 19 19 20 20 20 20 20 21 21 21 20 20 19 20 20 20 20 20 20 19 19 18 18 17 17 16 15 15 14 14 14 13 13 13 13 13 13 13 13 13 13 13
20 20 20 21 21 21 21 21 20 21 22 21 20 20 20 19 20 21 20 20 20 19 18 18 17 17 17 16 15 15 14 14 13 13 13 13 13 12 13 13 13 13 13 13
20 21 22 22 21 21 21 20 21 21 22 22 21 20 20 19 20 21 21 21 20 19 18 18 17 17 17 16 15 15 14 14 13 13 13 13 13 13 13 13 12 12 12 12
20 21 22 22 22 21 21 22 22 22 20 19 21 18 19 19 19 19 20 20 20 19 19 18 18 17 17 16 15 15 14 14 13 13 13 13 12 12 12 12 12 12 12 12
20 21 22 22 22 22 21 23 23 22 20 19 19 19 18 19 19 18 19 20 20 20 19 18 18 17 17 16 16 15 14 14 13 13 13 12 12 12 12 12 12 12 12 12
21 22 22 22 23 23 22 21 20 17 17 18 19 18 18 17 18 19 18 20 20 20 19 19 18 17 17 16 16 15 14 14 13 13 13 13 12 12 12 12 12 12 12 12
21 22 23 23 23 23 20 18 18 18 17 17 19 19 18 19 19 19 19 20 20 20 19 18 18 17 17 16 16 15 15 14 14 13 13 13 12 12 12 12 12 12 12 12
20 21 22 23 22 21 21 18 18 19 18 18 20 19 18 20 20 21 21 21 20 19 19 19 18 18 17 16 16 15 15 14 14 14 13 13 13 12 12 12 12 12 11 11
20 20 23 24 24 22 21 19 18 17 18 18 18 19 20 20 19 19 19 20 20 20 19 19 18 18 17 17 16 16 15 15 14 14 13 13 13 12 12 12 12 12 11 11
20 21 22 23 23 23 21 19 16 18 18 18 19 19 17 18 18 18 18 19 20 20 19 19 18 18 17 17 16 16 15 15 15 14 14 13 13 12 12 12 12 12 11 11
20 20 21 22 22 21 22 21 17 15 16 17 18 18 18 18 18 18 18 20 20 20 20 19 19 18 18 17 16 16 16 15 15 14 14 13 13 13 12 12 12 12 11 11
20 17 18 20 21 21 21 21 18 18 18 16 16 17 19 18 19 20 20 21 21 21 20 19 19 18 18 17 17 16 16 15 15 15 14 14 13 13 13 12 12 12 12 11
20 18 18 18 19 21 22 21 18 16 16 15 16 18 19 19 19 21 21 21 21 21 20 19 19 18 18 17 17 17 16 16 15 15 14 14 14 13 13 13 12 12 12 12
19 18 18 19 19 19 21 21 20 17 16 17 18 18 20 19 19 20 21 21 21 21 20 20 19 19 18 18 17 17 16 16 15 15 15 14 14 14 13 13 13 12 12 12
19 19 20 19 20 20 20 21 20 19 17 17 19 19 20 19 18 20 21 21 21 20 20 20 19 19 18 18 17 17 17 16 16 15 15 15 14 14 14 13 13 13 13 12
18 20 21 21 21 21 21 20 20 19 19 18 19 19 19 20 21 21 21 21 21 21 20 20 20 19 19 18 18 17 17 17 16 16 16 15 15 15 14 14 14 13 13 13
17 18 19 18 19 21 20 20 20 19 19 19 19 19 20 19 19 21 21 21 21 21 21 20 20 19 19 18 18 18 17 17 17 16 16 16 15 15 15 14 14 14 13 13
17 17 16 17 19 19 20 20 20 20 20 19 20 19 19 20 22 22 22 22 21 21 21 20 20 19 19 19 18 18 18 17 17 17 16 16 16 15 15 15 15 14 14 14
17 17 16 16 18 18 20 21 21 20 20 20 20 20 21 22 21 21 22 22 21 21 21 20 20 19 19 19 18 18 18 17 17 17 16 16 16 16 15 15 15 14 14 14
16 16 16 16 18 18 20 21 22 21 21 21 20 19 20 19 17 18 21 21 21 21 20 20 19 19 19 19 18 18 18 17 17 17 17 16 16 16 15 15 15 15 14 14
18 17 16 16 17 17 19 21 22 21 20 22 22 22 21 20 20 22 21 21 21 20 20 19 19 19 19 18 18 18 18 17 17 17 16 16 16 16 15 15 15 15 14 14
17 16 15 14 16 18 20 22 21 21 23 23 23 23 23 23 23 22 21 21 20 20 19 19 19 18 18 18 18 18 17 17 17 17 16 16 16 16 15 15 15 15 15 14
16 17 16 16 18 20 22 23 25 25 24 24 24 24 24 23 22 21 21 20 20 20 19 19 19 18 18 18 18 17 17 17 17 16 16 16 16 15 15 15 15 15 15 14
16 17 16 16 17 19 22 24 25 25 25 25 25 24 24 23 22 21 21 20 20 19 19 19 18 18 18 17 17 17 17 16 16 16 16 16 15 15 15 15 14 14 14 14
17 18 17 17 18 20 22 23 24 25 25 24 24 24 23 23 22 21 21 20 20 19 19 18 18 18 17 17 17 17 16 16 16 16 15 15 15 14 14 14 14 13 13 13
16 18 17 17 19 18 22 24 24 24 24 24 23 23 23 23 22 21 21 20 19 19 18 18 17 17 17 16 16 16 16 15 15 15 14 14 13 13 13 13 13 13 13 13